Time,TemperatureF,DewpointF,PressureIn,WindDirection,WindDirectionDegrees,WindSpeedMPH,WindSpeedGustMPH,Humidity,HourlyPrecipIn,Conditions,Clouds,dailyrainin,SolarRadiationWatts/m^2,SoftwareType,DateUTC
2013-01-17 00:12:00,21.0,10.0,-100.00,SSE,167,5.0,8.0,63,0.00,,,0.03,0.000000,,2013-01-17 07:12:00,
2013-01-17 00:22:00,21.0,10.0,-100.00,SSE,167,5.0,8.0,63,0.00,,,0.03,0.000000,,2013-01-17 07:22:00,
2013-01-17 00:32:00,21.0,10.0,-100.00,SSE,167,5.0,8.0,63,0.00,,,0.03,0.000000,,2013-01-17 07:32:00,
2013-01-17 00:42:00,21.0,10.0,-100.00,SSE,167,5.0,8.0,63,0.00,,,0.03,0.000000,,2013-01-17 07:42:00,
2013-01-17 00:52:00,21.0,10.0,-100.00,SSE,167,5.0,8.0,63,0.00,,,0.03,0.000000,,2013-01-17 07:52:00,
2013-01-17 01:22:00,18.0,10.0,-100.00,SSE,166,7.0,10.0,69,0.00,,,0.03,0.000000,,2013-01-17 08:22:00,
2013-01-17 01:32:00,18.0,10.0,-100.00,SSE,166,7.0,10.0,69,0.00,,,0.03,0.000000,,2013-01-17 08:32:00,
2013-01-17 01:43:00,18.0,10.0,-100.00,SSE,166,7.0,10.0,69,0.00,,,0.03,0.000000,,2013-01-17 08:43:00,
2013-01-17 01:52:00,18.0,10.0,-100.00,SSE,166,7.0,10.0,69,0.00,,,0.03,0.000000,,2013-01-17 08:52:00,
2013-01-17 02:12:00,17.0,10.0,-100.00,SSW,192,4.0,7.0,72,0.00,,,0.03,0.000000,,2013-01-17 09:12:00,
2013-01-17 02:22:00,17.0,10.0,-100.00,SSW,192,4.0,7.0,72,0.00,,,0.03,0.000000,,2013-01-17 09:22:00,
2013-01-17 02:32:00,17.0,10.0,-100.00,SSW,192,4.0,7.0,72,0.00,,,0.03,0.000000,,2013-01-17 09:32:00,
2013-01-17 02:42:00,17.0,10.0,-100.00,SSW,192,4.0,7.0,72,0.00,,,0.03,0.000000,,2013-01-17 09:42:00,
2013-01-17 02:52:00,17.0,10.0,-100.00,SSW,192,4.0,7.0,72,0.00,,,0.03,0.000000,,2013-01-17 09:52:00,
2013-01-17 03:22:00,19.0,11.0,-100.00,SSE,154,6.0,8.0,69,0.00,,,0.03,0.000000,,2013-01-17 10:22:00,
2013-01-17 03:32:00,19.0,11.0,-100.00,SSE,154,6.0,8.0,69,0.00,,,0.03,0.000000,,2013-01-17 10:32:00,
2013-01-17 03:42:00,19.0,11.0,-100.00,SSE,154,6.0,8.0,69,0.00,,,0.03,0.000000,,2013-01-17 10:42:00,
2013-01-17 03:52:00,19.0,11.0,-100.00,SSE,154,6.0,8.0,69,0.00,,,0.03,0.000000,,2013-01-17 10:52:00,
2013-01-17 04:12:00,17.0,9.0,-100.00,South,184,4.0,8.0,69,0.00,,,0.03,0.000000,,2013-01-17 11:12:00,
2013-01-17 04:22:00,17.0,9.0,-100.00,South,184,4.0,8.0,69,0.00,,,0.03,0.000000,,2013-01-17 11:22:00,
2013-01-17 04:33:00,17.0,9.0,-100.00,South,184,4.0,8.0,69,0.00,,,0.03,0.000000,,2013-01-17 11:33:00,
2013-01-17 04:42:00,17.0,9.0,-100.00,South,184,4.0,8.0,69,0.00,,,0.03,0.000000,,2013-01-17 11:42:00,
2013-01-17 04:52:00,17.0,9.0,-100.00,South,184,4.0,8.0,69,0.00,,,0.03,0.000000,,2013-01-17 11:52:00,
2013-01-17 05:12:00,17.0,9.0,-100.00,South,180,3.0,5.0,69,0.00,,,0.03,0.000000,,2013-01-17 12:12:00,
2013-01-17 05:23:00,17.0,9.0,-100.00,South,180,3.0,5.0,69,0.00,,,0.03,0.000000,,2013-01-17 12:23:00,
2013-01-17 05:33:00,17.0,9.0,-100.00,South,180,3.0,5.0,69,0.00,,,0.03,0.000000,,2013-01-17 12:33:00,
2013-01-17 05:42:00,17.0,9.0,-100.00,South,180,3.0,5.0,69,0.00,,,0.03,0.000000,,2013-01-17 12:42:00,
2013-01-17 05:52:00,17.0,9.0,-100.00,South,180,3.0,5.0,69,0.00,,,0.03,0.000000,,2013-01-17 12:52:00,
2013-01-17 06:23:00,17.0,8.0,-100.00,South,181,2.0,5.0,68,0.00,,,-99.99,0.000000,,2013-01-17 13:23:00,
2013-01-17 06:33:00,17.0,8.0,-100.00,South,181,2.0,5.0,68,0.00,,,-99.99,0.000000,,2013-01-17 13:33:00,
2013-01-17 06:43:00,17.0,8.0,-100.00,South,181,2.0,5.0,68,0.00,,,-99.99,0.000000,,2013-01-17 13:43:00,
2013-01-17 06:52:00,17.0,8.0,-100.00,South,181,2.0,5.0,68,0.00,,,-99.99,0.000000,,2013-01-17 13:52:00,
2013-01-17 07:12:00,16.0,4.0,-100.00,NNE,18,2.0,2.0,59,0.00,,,0.03,0.000000,,2013-01-17 14:12:00,
2013-01-17 07:23:00,16.0,4.0,-100.00,NNE,18,2.0,2.0,59,0.00,,,0.03,0.000000,,2013-01-17 14:23:00,
2013-01-17 07:33:00,16.0,4.0,-100.00,NNE,18,2.0,2.0,59,0.00,,,0.03,0.000000,,2013-01-17 14:33:00,
2013-01-17 07:43:00,16.0,4.0,-100.00,NNE,18,2.0,2.0,59,0.00,,,0.03,0.000000,,2013-01-17 14:43:00,
2013-01-17 07:53:00,16.0,4.0,-100.00,NNE,18,2.0,2.0,59,0.00,,,0.03,0.000000,,2013-01-17 14:53:00,
2013-01-17 08:23:00,17.0,8.0,-100.00,South,189,2.0,3.0,66,0.00,,,0.03,6.000000,,2013-01-17 15:23:00,
2013-01-17 08:33:00,17.0,8.0,-100.00,South,189,2.0,3.0,66,0.00,,,0.03,6.000000,,2013-01-17 15:33:00,
2013-01-17 08:43:00,17.0,8.0,-100.00,South,189,2.0,3.0,66,0.00,,,0.03,6.000000,,2013-01-17 15:43:00,
2013-01-17 08:53:00,17.0,8.0,-100.00,South,189,2.0,3.0,66,0.00,,,0.03,6.000000,,2013-01-17 15:53:00,
2013-01-17 09:12:00,24.0,8.0,-100.00,SSW,192,5.0,6.0,50,0.00,,,0.03,131.000000,,2013-01-17 16:12:00,
2013-01-17 09:23:00,24.0,8.0,-100.00,SSW,192,5.0,6.0,50,0.00,,,0.03,131.000000,,2013-01-17 16:23:00,
2013-01-17 09:33:00,24.0,8.0,-100.00,SSW,192,5.0,6.0,50,0.00,,,0.03,131.000000,,2013-01-17 16:33:00,
2013-01-17 09:43:00,24.0,8.0,-100.00,SSW,192,5.0,6.0,50,0.00,,,0.03,131.000000,,2013-01-17 16:43:00,
2013-01-17 09:52:00,24.0,8.0,-100.00,SSW,192,5.0,6.0,50,0.00,,,0.03,131.000000,,2013-01-17 16:52:00,
2013-01-17 10:13:00,25.0,12.0,-100.00,South,191,6.0,8.0,56,0.00,,,0.02,270.000000,,2013-01-17 17:13:00,
2013-01-17 10:23:00,25.0,12.0,-100.00,South,191,6.0,8.0,56,0.00,,,0.02,270.000000,,2013-01-17 17:23:00,
2013-01-17 10:33:00,25.0,12.0,-100.00,South,191,6.0,8.0,56,0.00,,,0.02,270.000000,,2013-01-17 17:33:00,
2013-01-17 10:43:00,25.0,12.0,-100.00,South,191,6.0,8.0,56,0.00,,,0.02,270.000000,,2013-01-17 17:43:00,
2013-01-17 10:53:00,25.0,12.0,-100.00,South,191,6.0,8.0,56,0.00,,,0.02,270.000000,,2013-01-17 17:53:00,
2013-01-17 11:12:00,28.0,11.0,-100.00,South,181,7.0,10.0,49,0.00,,,0.00,434.000000,,2013-01-17 18:12:00,
2013-01-17 11:22:00,28.0,11.0,-100.00,South,181,7.0,10.0,49,0.00,,,0.00,434.000000,,2013-01-17 18:22:00,
2013-01-17 11:33:00,28.0,11.0,-100.00,South,181,7.0,10.0,49,0.00,,,0.00,434.000000,,2013-01-17 18:33:00,
2013-01-17 11:43:00,28.0,11.0,-100.00,South,181,7.0,10.0,49,0.00,,,0.00,434.000000,,2013-01-17 18:43:00,
2013-01-17 11:53:00,28.0,11.0,-100.00,South,181,7.0,10.0,49,0.00,,,0.00,434.000000,,2013-01-17 18:53:00,
2013-01-17 12:12:00,33.0,11.0,-100.00,South,188,6.0,9.0,40,0.00,,,0.00,512.000000,,2013-01-17 19:12:00,
2013-01-17 12:23:00,33.0,11.0,-100.00,South,188,6.0,9.0,40,0.00,,,0.00,512.000000,,2013-01-17 19:23:00,
2013-01-17 12:33:00,33.0,11.0,-100.00,South,188,6.0,9.0,40,0.00,,,0.00,512.000000,,2013-01-17 19:33:00,
2013-01-17 12:43:00,33.0,11.0,-100.00,South,188,6.0,9.0,40,0.00,,,0.00,512.000000,,2013-01-17 19:43:00,
2013-01-17 12:53:00,33.0,11.0,-100.00,South,188,6.0,9.0,40,0.00,,,0.00,512.000000,,2013-01-17 19:53:00,
2013-01-17 13:23:00,36.0,8.0,-100.00,South,186,7.0,9.0,31,0.00,,,0.00,532.000000,,2013-01-17 20:23:00,
2013-01-17 13:33:00,36.0,8.0,-100.00,South,186,7.0,9.0,31,0.00,,,0.00,532.000000,,2013-01-17 20:33:00,
2013-01-17 13:43:00,36.0,8.0,-100.00,South,186,7.0,9.0,31,0.00,,,0.00,532.000000,,2013-01-17 20:43:00,
2013-01-17 13:53:00,36.0,8.0,-100.00,South,186,7.0,9.0,31,0.00,,,0.00,532.000000,,2013-01-17 20:53:00,
2013-01-17 14:23:00,36.0,10.0,-100.00,SSW,204,8.0,11.0,34,0.00,,,0.00,494.000000,,2013-01-17 21:23:00,
2013-01-17 14:33:00,36.0,10.0,-100.00,SSW,204,8.0,11.0,34,0.00,,,0.00,494.000000,,2013-01-17 21:33:00,
2013-01-17 14:43:00,36.0,10.0,-100.00,SSW,204,8.0,11.0,34,0.00,,,0.00,494.000000,,2013-01-17 21:43:00,
2013-01-17 14:52:00,36.0,10.0,-100.00,SSW,204,8.0,11.0,34,0.00,,,0.00,494.000000,,2013-01-17 21:52:00,
2013-01-17 15:12:00,37.0,12.0,-100.00,SSW,195,6.0,10.0,35,0.00,,,0.00,401.000000,,2013-01-17 22:12:00,
2013-01-17 15:23:00,37.0,12.0,-100.00,SSW,195,6.0,10.0,35,0.00,,,0.00,401.000000,,2013-01-17 22:23:00,
2013-01-17 15:33:00,37.0,12.0,-100.00,SSW,195,6.0,10.0,35,0.00,,,0.00,401.000000,,2013-01-17 22:33:00,
2013-01-17 15:43:00,37.0,12.0,-100.00,SSW,195,6.0,10.0,35,0.00,,,0.00,401.000000,,2013-01-17 22:43:00,
2013-01-17 15:52:00,37.0,12.0,-100.00,SSW,195,6.0,10.0,35,0.00,,,0.00,401.000000,,2013-01-17 22:52:00,
2013-01-17 16:12:00,35.0,11.0,-100.00,SSW,193,5.0,8.0,36,0.00,,,0.00,265.000000,,2013-01-17 23:12:00,
2013-01-17 16:22:00,35.0,11.0,-100.00,SSW,193,5.0,8.0,36,0.00,,,0.00,265.000000,,2013-01-17 23:22:00,
2013-01-17 16:33:00,35.0,11.0,-100.00,SSW,193,5.0,8.0,36,0.00,,,0.00,265.000000,,2013-01-17 23:33:00,
2013-01-17 16:43:00,35.0,11.0,-100.00,SSW,193,5.0,8.0,36,0.00,,,0.00,265.000000,,2013-01-17 23:43:00,
2013-01-17 16:52:00,35.0,11.0,-100.00,SSW,193,5.0,8.0,36,0.00,,,0.00,265.000000,,2013-01-17 23:52:00,
2013-01-17 17:23:00,31.0,8.0,-100.00,SSW,192,3.0,6.0,37,0.00,,,0.00,97.000000,,2013-01-18 00:23:00,
2013-01-17 17:32:00,31.0,8.0,-100.00,SSW,192,3.0,6.0,37,0.00,,,0.00,97.000000,,2013-01-18 00:32:00,
2013-01-17 17:42:00,31.0,8.0,-100.00,SSW,192,3.0,6.0,37,0.00,,,0.00,97.000000,,2013-01-18 00:42:00,
2013-01-17 17:52:00,31.0,8.0,-100.00,SSW,192,3.0,6.0,37,0.00,,,0.00,97.000000,,2013-01-18 00:52:00,
2013-01-17 18:12:00,25.0,4.0,-100.00,SSE,152,2.0,5.0,40,0.00,,,0.00,2.000000,,2013-01-18 01:12:00,
2013-01-17 18:23:00,25.0,4.0,-100.00,SSE,152,2.0,5.0,40,0.00,,,0.00,2.000000,,2013-01-18 01:23:00,
2013-01-17 18:33:00,25.0,4.0,-100.00,SSE,152,2.0,5.0,40,0.00,,,0.00,2.000000,,2013-01-18 01:33:00,
2013-01-17 18:43:00,25.0,4.0,-100.00,SSE,152,2.0,5.0,40,0.00,,,0.00,2.000000,,2013-01-18 01:43:00,
2013-01-17 18:52:00,25.0,4.0,-100.00,SSE,152,2.0,5.0,40,0.00,,,0.00,2.000000,,2013-01-18 01:52:00,
2013-01-17 19:12:00,24.0,2.0,-100.00,NE,48,1.0,5.0,38,0.00,,,0.00,0.000000,,2013-01-18 02:12:00,
2013-01-17 19:22:00,24.0,2.0,-100.00,NE,48,1.0,5.0,38,0.00,,,0.00,0.000000,,2013-01-18 02:22:00,
2013-01-17 19:33:00,24.0,2.0,-100.00,NE,48,1.0,5.0,38,0.00,,,0.00,0.000000,,2013-01-18 02:33:00,
2013-01-17 19:42:00,24.0,2.0,-100.00,NE,48,1.0,5.0,38,0.00,,,0.00,0.000000,,2013-01-18 02:42:00,
2013-01-17 19:52:00,24.0,2.0,-100.00,NE,48,1.0,5.0,38,0.00,,,0.00,0.000000,,2013-01-18 02:52:00,
2013-01-17 20:23:00,24.0,0.0,-100.00,NNE,20,1.0,5.0,35,0.00,,,0.00,0.000000,,2013-01-18 03:23:00,
2013-01-17 20:33:00,24.0,0.0,-100.00,NNE,20,1.0,5.0,35,0.00,,,0.00,0.000000,,2013-01-18 03:33:00,
2013-01-17 20:42:00,24.0,0.0,-100.00,NNE,20,1.0,5.0,35,0.00,,,0.00,0.000000,,2013-01-18 03:42:00,
2013-01-17 20:52:00,24.0,0.0,-100.00,NNE,20,1.0,5.0,35,0.00,,,0.00,0.000000,,2013-01-18 03:52:00,
2013-01-17 21:22:00,25.0,-2.0,-100.00,South,172,2.0,4.0,30,0.00,,,0.00,0.000000,,2013-01-18 04:22:00,
2013-01-17 21:33:00,25.0,-2.0,-100.00,South,172,2.0,4.0,30,0.00,,,0.00,0.000000,,2013-01-18 04:33:00,
2013-01-17 21:42:00,25.0,-2.0,-100.00,South,172,2.0,4.0,30,0.00,,,0.00,0.000000,,2013-01-18 04:42:00,
2013-01-17 21:52:00,25.0,-2.0,-100.00,South,172,2.0,4.0,30,0.00,,,0.00,0.000000,,2013-01-18 04:52:00,
2013-01-17 22:12:00,24.0,-1.0,-100.00,SSE,159,1.0,5.0,33,0.00,,,0.00,0.000000,,2013-01-18 05:12:00,
2013-01-17 22:22:00,24.0,-1.0,-100.00,SSE,159,1.0,5.0,33,0.00,,,0.00,0.000000,,2013-01-18 05:22:00,
2013-01-17 22:33:00,24.0,-1.0,-100.00,SSE,159,1.0,5.0,33,0.00,,,0.00,0.000000,,2013-01-18 05:33:00,
2013-01-17 22:42:00,24.0,-1.0,-100.00,SSE,159,1.0,5.0,33,0.00,,,0.00,0.000000,,2013-01-18 05:42:00,
2013-01-17 22:52:00,24.0,-1.0,-100.00,SSE,159,1.0,5.0,33,0.00,,,0.00,0.000000,,2013-01-18 05:52:00,
2013-01-17 23:12:00,23.0,-2.0,-100.00,East,97,3.0,4.0,32,0.00,,,0.00,0.000000,,2013-01-18 06:12:00,
2013-01-17 23:22:00,23.0,-2.0,-100.00,East,97,3.0,4.0,32,0.00,,,0.00,0.000000,,2013-01-18 06:22:00,
2013-01-17 23:33:00,23.0,-2.0,-100.00,East,97,3.0,4.0,32,0.00,,,0.00,0.000000,,2013-01-18 06:33:00,
2013-01-17 23:43:00,23.0,-2.0,-100.00,East,97,3.0,4.0,32,0.00,,,0.00,0.000000,,2013-01-18 06:43:00,
2013-01-17 23:52:00,23.0,-2.0,-100.00,East,97,3.0,4.0,32,0.00,,,0.00,0.000000,,2013-01-18 06:52:00,